This is the latest recevied weather packets stored in our database for station/object KD7AWQ. If no packets are shown the sender has not sent any weather packets the latest 10 day(s).
| Time | Temp. | Humidity | Pressure | Rain* | Wind** | Luminosity | Snow |
|---|---|---|---|---|---|---|---|
| 1788133631 | 33.89° C | 28% | 1184.9 hPa | 0 mm | - | 362 W/m² | - |
| 1788133327 | 33.89° C | 28% | 1185 hPa | 0 mm | - | 383 W/m² | - |
| 1788133022 | 33.33° C | 28% | 1184.9 hPa | 0 mm | - | 405 W/m² | - |
| 1788132717 | 33.33° C | 28% | 1184.9 hPa | 0 mm | - | 425 W/m² | - |
| 1788132413 | 33.89° C | 27% | 1184.8 hPa | 0 mm | - | 455 W/m² | - |
| 1788132109 | 33.33° C | 28% | 1185 hPa | 0 mm | - | 490 W/m² | - |
| 1788131805 | 33.33° C | 27% | 1184.8 hPa | 0 mm | - | 514 W/m² | - |
| 1788131504 | 33.89° C | 26% | 1185.2 hPa | 0 mm | - | 529 W/m² | - |
| 1788131200 | 33.89° C | 28% | 1185.2 hPa | 0 mm | - | 552 W/m² | - |
| 1788130900 | 32.78° C | 29% | 1184.8 hPa | 0 mm | - | 575 W/m² | - |
| 1788130594 | 32.78° C | 31% | 1185.3 hPa | 0 mm | - | 593 W/m² | - |
| 1788130289 | 33.89° C | 31% | 1185.2 hPa | 0 mm | - | 612 W/m² | - |
| 1788129988 | 33.89° C | 30% | 1185.4 hPa | 0 mm | - | 628 W/m² | - |
| 1788129684 | 32.78° C | 31% | 1185.4 hPa | 0 mm | - | 634 W/m² | - |
| 1788129381 | 32.78° C | 31% | 1185.6 hPa | 0 mm | - | 658 W/m² | - |
| 1788129075 | 32.78° C | 31% | 1185.6 hPa | 0 mm | - | 685 W/m² | - |
| 1788128775 | 32.78° C | 31% | 1186 hPa | 0 mm | - | 691 W/m² | - |
| 1788128471 | 33.89° C | 29% | 1185.6 hPa | 0 mm | - | 702 W/m² | - |
| 1788128167 | 33.89° C | 30% | 1185.8 hPa | 0 mm | - | 722 W/m² | - |
| 1788127863 | 33.89° C | 29% | 1185.8 hPa | 0 mm | - | 728 W/m² | - |
| 1788127557 | 33.89° C | 29% | 1185.7 hPa | 0 mm | - | 750 W/m² | - |
| 1788127256 | 33.89° C | 29% | 1186.1 hPa | 0 mm | - | 765 W/m² | - |
| 1788126955 | 34.44° C | 28% | 1186.4 hPa | 0 mm | - | 777 W/m² | - |
| 1788126650 | 33.89° C | 29% | 1186.4 hPa | 0 mm | - | 795 W/m² | - |
| 1788126345 | 33.33° C | 30% | 1186 hPa | 0 mm | - | 813 W/m² | - |
* Rain latest hour (hover to see other rain measurements)
** Current wind speed in m/s (hover to see current wind gust speed)